EW7666 Weather Reports


Display with metric or nautical units.
time (UTC)temp
F
wind
direction
speed
MPH
gust
MPH
rain 1hr
in
rain 24hr
in
rain mn
in
humidity
%
barometer
mb
20180225094520 68 137 1.0 5.0 0.00 0.00 0.00 100 1017.1
20180225094019 68 198 1.0 6.0 0.00 0.00 0.00 100 1017.1
20180225093519 68 161 1.0 6.0 0.00 0.00 0.00 100 1017.2
20180225093020 68 144 1.0 4.0 0.00 0.00 0.00 100 1017.2
20180225092520 68 150 1.0 5.0 0.00 0.00 0.00 100 1017.2
20180225091020 68 143 1.0 5.0 0.00 0.00 0.00 100 1017.2
20180225090520 68 149 1.0 4.0 0.00 0.00 0.00 100 1017.1
20180225090019 68 222 1.0 4.0 0.00 0.00 0.00 100 1017.2
20180225085518 68 169 1.0 4.0 0.00 0.00 0.00 100 1017.2
20180225085018 68 198 1.0 3.0 0.00 0.00 0.00 100 1017.4
20180225084517 68 149 0.0 2.0 0.00 0.00 0.00 100 1017.5
20180225084018 68 122 1.0 3.0 0.00 0.00 0.00 100 1017.6
20180225083517 68 138 1.0 3.0 0.00 0.00 0.00 100 1017.6
20180225083017 68 130 1.0 3.0 0.00 0.00 0.00 100 1017.6
20180225082516 69 148 1.0 3.0 0.00 0.00 0.00 100 1017.7
20180225082015 69 151 1.0 4.0 0.00 0.00 0.00 100 1017.8
20180225081513 69 145 1.0 4.0 0.00 0.00 0.00 100 1017.9
20180225081013 69 126 1.0 4.0 0.00 0.00 0.00 100 1017.9
20180225080511 69 117 0.0 3.0 0.00 0.00 0.00 100 1018.0
20180225080011 69 190 0.0 2.0 0.00 0.00 0.00 100 1018.1
20180225075509 69 183 0.0 2.0 0.00 0.00 0.00 100 1018.2
20180225075006 69 192 0.0 4.0 0.00 0.00 0.00 100 1018.2
20180225074505 69 158 1.0 4.0 0.00 0.00 0.00 100 1018.2
20180225074005 69 164 1.0 3.0 0.00 0.00 0.00 100 1018.2
20180225073505 69 217 1.0 4.0 0.00 0.00 0.00 100 1018.3
20180225073004 69 140 1.0 4.0 0.00 0.00 0.00 100 1018.3
20180225072503 69 137 1.0 2.0 0.00 0.00 0.00 100 1018.4
20180225072003 69 164 1.0 3.0 0.00 0.00 0.00 99 1018.5
20180225071503 69 164 1.0 3.0 0.00 0.00 0.00 99 1018.5
20180225071003 69 140 1.0 4.0 0.00 0.00 0.00 99 1018.5
20180225070503 69 131 1.0 4.0 0.00 0.00 0.00 99 1018.4
20180225070001 69 139 1.0 3.0 0.00 0.00 0.00 99 1018.4
20180225065501 69 142 1.0 2.0 0.00 0.00 0.00 99 1018.5
20180225065002 69 128 1.0 7.0 0.00 0.00 0.00 99 1018.5
20180225064501 69 220 2.0 7.0 0.00 0.00 0.00 99 1018.5
20180225064002 69 176 2.0 5.0 0.00 0.00 0.00 99 1018.5
20180225063459 69 149 1.0 5.0 0.00 0.00 0.00 99 1018.4
20180225062959 70 77 1.0 4.0 0.00 0.00 0.00 99 1018.4
20180225062457 70 165 1.0 7.0 0.00 0.00 0.00 99 1018.5
20180225061955 70 145 1.0 7.0 0.00 0.00 0.00 99 1018.5
20180225061455 70 103 2.0 6.0 0.00 0.00 0.00 99 1018.6
20180225060955 70 150 2.0 6.0 0.00 0.00 0.00 99 1018.6
20180225060455 70 242 2.0 8.0 0.00 0.00 0.00 99 1018.7
20180225055955 70 142 2.0 8.0 0.00 0.00 0.00 99 1018.7
20180225055455 70 192 2.0 5.0 0.00 0.00 0.00 99 1018.7
20180225054955 70 137 2.0 5.0 0.00 0.00 0.00 99 1018.7
20180225054454 70 201 1.0 4.0 0.00 0.00 0.00 99 1018.7
20180225053955 70 206 2.0 4.0 0.00 0.00 0.00 99 1018.6
20180225053455 70 122 2.0 6.0 0.00 0.00 0.00 99 1018.6
20180225052952 70 142 2.0 6.0 0.00 0.00 0.00 99 1018.6
20180225052453 70 140 1.0 5.0 0.00 0.00 0.00 99 1018.6
20180225051953 70 122 1.0 6.0 0.00 0.00 0.00 99 1018.5
20180225051452 70 168 2.0 6.0 0.00 0.00 0.00 99 1018.5
20180225050950 70 90 1.0 6.0 0.00 0.00 0.00 99 1018.6
20180225050451 70 136 1.0 6.0 0.00 0.00 0.00 99 1018.6
20180225045948 70 146 1.0 5.0 0.00 0.00 0.00 99 1018.5
20180225045452 70 134 1.0 7.0 0.00 0.00 0.00 98 1018.5
20180225045448 70 151 1.0 5.0 0.00 0.00 0.00 99 1018.5
20180225044448 70 192 1.0 7.0 0.00 0.00 0.00 98 1018.5
20180225043948 70 144 2.0 7.0 0.00 0.00 0.00 98 1018.5
20180225043449 70 182 2.0 8.0 0.00 0.00 0.00 98 1018.6
20180225042948 70 146 2.0 8.0 0.00 0.00 0.00 98 1018.6
20180225042448 70 119 2.0 7.0 0.00 0.00 0.00 98 1018.5
20180225041949 70 171 2.0 6.0 0.00 0.00 0.00 98 1018.5
20180225041448 70 109 3.0 7.0 0.00 0.00 0.00 98 1018.5
20180225040949 71 171 3.0 8.0 0.00 0.00 0.00 98 1018.4
20180225040449 71 154 2.0 10.0 0.00 0.00 0.00 98 1018.6
20180225035948 71 61 2.0 10.0 0.00 0.00 0.00 98 1018.8
20180225035448 71 183 2.0 8.0 0.00 0.00 0.00 97 1018.7
20180225034948 71 128 2.0 8.0 0.00 0.00 0.00 97 1018.8
20180225034449 71 133 2.0 6.0 0.00 0.00 0.00 97 1018.6
20180225033948 71 169 2.0 7.0 0.00 0.00 0.00 97 1018.5
20180225033448 71 150 2.0 7.0 0.00 0.00 0.00 97 1018.6
20180225032949 71 142 2.0 9.0 0.00 0.00 0.00 97 1018.6
20180225032448 71 142 2.0 9.0 0.00 0.00 0.00 97 1018.7
20180225031948 71 125 1.0 4.0 0.00 0.00 0.00 97 1018.9
20180225031448 71 134 2.0 5.0 0.00 0.00 0.00 97 1018.9
20180225030949 71 149 2.0 5.0 0.00 0.00 0.00 97 1018.8
20180225030448 71 121 2.0 6.0 0.00 0.00 0.00 96 1018.7
20180225025949 71 165 2.0 6.0 0.00 0.00 0.00 96 1018.9
20180225025449 71 132 2.0 5.0 0.00 0.00 0.00 96 1018.8
20180225024948 71 147 2.0 5.0 0.00 0.00 0.00 96 1018.8
20180225024448 71 149 3.0 7.0 0.00 0.00 0.00 97 1018.8
20180225023949 71 239 2.0 7.0 0.00 0.00 0.00 97 1018.8
20180225023448 71 150 1.0 6.0 0.00 0.00 0.00 97 1018.7
20180225022949 71 152 1.0 5.0 0.00 0.00 0.00 97 1018.7
20180225022449 71 190 2.0 6.0 0.00 0.00 0.00 96 1018.6
20180225021946 71 112 2.0 6.0 0.00 0.00 0.00 97 1018.6
20180225021446 71 211 2.0 6.0 0.00 0.00 0.00 97 1018.5
20180225020947 71 96 1.0 5.0 0.00 0.00 0.00 96 1018.5
20180225020447 70 144 2.0 6.0 0.00 0.00 0.00 97 1018.4
20180225015946 70 234 2.0 6.0 0.00 0.00 0.00 96 1018.5
20180225015447 70 199 2.0 8.0 0.00 0.00 0.00 96 1018.4
20180225014946 70 201 2.0 8.0 0.00 0.00 0.00 96 1018.4
20180225014446 71 135 2.0 9.0 0.00 0.00 0.00 96 1018.3
20180225013947 71 139 2.0 9.0 0.00 0.00 0.00 96 1018.3
20180225013444 71 94 2.0 8.0 0.00 0.00 0.00 96 1018.2
20180225012944 71 155 2.0 8.0 0.00 0.00 0.00 96 1018.2
20180225012442 71 140 2.0 6.0 0.00 0.00 0.00 96 1018.1
20180225011942 71 192 2.0 7.0 0.00 0.00 0.00 96 1018.1
20180225011442 71 155 2.0 7.0 0.00 0.00 0.00 96 1018.0
20180225010943 71 149 2.0 6.0 0.00 0.00 0.00 96 1018.0
20180225010441 71 148 3.0 7.0 0.00 0.00 0.00 96 1018.0
20180225005940 71 163 3.0 7.0 0.00 0.00 0.00 95 1017.9
20180225005441 71 159 2.0 6.0 0.00 0.00 0.00 95 1018.0
20180225004941 71 140 2.0 6.0 0.00 0.00 0.00 95 1018.0
20180225004440 71 155 2.0 6.0 0.00 0.00 0.00 95 1018.2
20180225003939 71 136 3.0 8.0 0.00 0.00 0.00 95 1018.1
20180225003439 71 123 2.0 9.0 0.00 0.00 0.00 95 1018.1
20180225002938 71 169 2.0 9.0 0.00 0.00 0.00 95 1018.0
20180225002438 71 240 2.0 8.0 0.00 0.00 0.00 95 1017.9
20180225001938 71 161 3.0 9.0 0.00 0.00 0.00 95 1017.9
20180225001437 71 154 3.0 9.0 0.00 0.00 0.00 94 1017.8
20180225000936 72 158 2.0 8.0 0.00 0.00 0.00 94 1017.9
20180225000438 72 131 3.0 8.0 0.00 0.00 0.00 93 1017.8
20180224235934 72 142 3.0 8.0 0.00 0.00 0.00 93 1017.8
20180224235434 72 132 3.0 8.0 0.00 0.00 0.00 93 1017.7
20180224234934 72 143 3.0 9.0 0.00 0.00 0.00 93 1017.7
20180224234434 72 155 4.0 9.0 0.00 0.00 0.00 93 1017.6
20180224233932 72 147 4.0 9.0 0.00 0.00 0.00 92 1017.5
20180224233432 72 144 4.0 10.0 0.00 0.00 0.00 92 1017.4
20180224232932 72 189 4.0 13.0 0.00 0.00 0.00 92 1017.4
20180224232430 73 171 3.0 13.0 0.00 0.00 0.00 91 1017.4
20180224231930 73 142 3.0 10.0 0.00 0.00 0.00 91 1017.4
20180224231428 73 153 3.0 9.0 0.00 0.00 0.00 90 1017.3
20180224230928 73 168 4.0 11.0 0.00 0.00 0.00 90 1017.2
20180224230428 73 223 4.0 11.0 0.00 0.00 0.00 89 1017.2
20180224225928 74 225 4.0 10.0 0.00 0.00 0.00 89 1017.1
20180224225426 74 111 4.0 10.0 0.00 0.00 0.00 89 1017.1
20180224224926 74 142 3.0 10.0 0.00 0.00 0.00 88 1017.1
20180224224426 74 84 4.0 10.0 0.00 0.00 0.00 88 1017.2
20180224223926 74 94 4.0 9.0 0.00 0.00 0.00 87 1017.2
20180224223426 75 150 4.0 10.0 0.00 0.00 0.00 86 1017.0
20180224222926 75 135 4.0 11.0 0.00 0.00 0.00 86 1017.0
20180224222426 75 5 4.0 12.0 0.00 0.00 0.00 85 1017.1
20180224221928 76 163 4.0 13.0 0.00 0.00 0.00 85 1017.1
20180224221426 76 147 4.0 13.0 0.00 0.00 0.00 84 1017.0
20180224220927 77 82 3.0 11.0 0.00 0.00 0.00 83 1017.1
20180224220426 77 155 3.0 10.0 0.00 0.00 0.00 82 1017.2
20180224215926 77 133 5.0 13.0 0.00 0.00 0.00 81 1017.2
20180224215426 77 155 6.0 14.0 0.00 0.00 0.00 80 1017.2
20180224214925 77 179 6.0 17.0 0.00 0.00 0.00 79 1017.2
20180224214424 78 175 6.0 17.0 0.00 0.00 0.00 78 1017.2
20180224213924 78 143 5.0 15.0 0.00 0.00 0.00 77 1017.2
20180224213424 79 69 4.0 15.0 0.00 0.00 0.00 77 1017.1
20180224212924 78 199 5.0 15.0 0.00 0.00 0.00 77 1017.1
20180224212425 78 127 5.0 14.0 0.00 0.00 0.00 77 1017.2
20180224211924 79 128 5.0 14.0 0.00 0.00 0.00 76 1017.1
20180224211424 79 149 5.0 14.0 0.00 0.00 0.00 76 1017.2
20180224210925 79 142 6.0 13.0 0.00 0.00 0.00 76 1017.2
20180224210424 79 232 6.0 13.0 0.00 0.00 0.00 74 1017.2
20180224205924 79 140 5.0 13.0 0.00 0.00 0.00 76 1017.2
20180224205422 79 212 5.0 14.0 0.00 0.00 0.00 77 1017.1
20180224204922 78 198 6.0 17.0 0.00 0.00 0.00 76 1017.3
20180224204422 78 145 6.0 17.0 0.00 0.00 0.00 75 1017.4
20180224203922 78 134 6.0 14.0 0.00 0.00 0.00 79 1017.4
20180224203422 78 175 6.0 15.0 0.00 0.00 0.00 79 1017.4
20180224202922 78 153 5.0 15.0 0.00 0.00 0.00 78 1017.4
20180224202421 79 138 4.0 12.0 0.00 0.00 0.00 77 1017.5
20180224201922 78 110 4.0 12.0 0.00 0.00 0.00 78 1017.6
20180224201422 78 196 5.0 13.0 0.00 0.00 0.00 80 1017.7
20180224200922 77 172 5.0 13.0 0.00 0.00 0.00 80 1017.8
20180224200421 78 134 5.0 13.0 0.00 0.00 0.00 80 1017.8
20180224195920 77 134 5.0 13.0 0.00 0.00 0.00 81 1017.9
20180224195420 77 155 5.0 10.0 0.00 0.00 0.00 81 1017.9
20180224194919 77 128 5.0 11.0 0.00 0.00 0.00 81 1017.9
20180224194420 77 165 4.0 11.0 0.00 0.00 0.00 82 1018.1
20180224193920 77 140 5.0 14.0 0.00 0.00 0.00 81 1018.2
20180224193420 77 109 6.0 15.0 0.00 0.00 0.00 80 1018.1
20180224192919 78 164 5.0 15.0 0.00 0.00 0.00 78 1018.1
20180224192420 78 130 6.0 14.0 0.00 0.00 0.00 77 1018.1
20180224191920 79 123 6.0 18.0 0.00 0.00 0.00 77 1018.2
20180224191417 79 78 5.0 18.0 0.00 0.00 0.00 78 1018.3
20180224190918 79 85 5.0 12.0 0.00 0.00 0.00 78 1018.4
20180224190418 78 130 5.0 12.0 0.00 0.00 0.00 78 1018.4
20180224185918 78 127 5.0 17.0 0.00 0.00 0.00 78 1018.6
20180224185419 79 116 5.0 17.0 0.00 0.00 0.00 78 1018.6
20180224184918 79 136 5.0 14.0 0.00 0.00 0.00 76 1018.7
20180224184418 79 148 5.0 14.0 0.00 0.00 0.00 76 1018.8
20180224183917 79 124 5.0 19.0 0.00 0.00 0.00 77 1018.9
20180224183418 78 136 5.0 19.0 0.00 0.00 0.00 78 1019.1
20180224182918 78 160 5.0 12.0 0.00 0.00 0.00 78 1019.3
20180224182415 78 136 6.0 12.0 0.00 0.00 0.00 77 1019.3
20180224181916 79 157 5.0 13.0 0.00 0.00 0.00 77 1019.5
20180224181416 79 194 4.0 13.0 0.00 0.00 0.00 76 1019.6
20180224180915 80 202 4.0 10.0 0.00 0.00 0.00 77 1019.7
20180224180416 79 116 4.0 10.0 0.00 0.00 0.00 77 1019.8
20180224175916 78 180 4.0 11.0 0.00 0.01 0.00 79 1019.9
20180224175415 77 129 5.0 11.0 0.00 0.01 0.00 80 1019.9
20180224174916 78 161 5.0 10.0 0.00 0.01 0.00 79 1020.2
20180224174416 78 124 6.0 13.0 0.00 0.01 0.00 79 1020.2
20180224173916 78 149 5.0 13.0 0.00 0.01 0.00 78 1020.2
20180224173416 78 325 5.0 13.0 0.00 0.01 0.00 77 1020.3
20180224172916 78 259 5.0 14.0 0.00 0.01 0.00 78 1020.5
20180224172416 78 115 5.0 14.0 0.00 0.01 0.00 79 1020.6
20180224171914 77 165 5.0 13.0 0.00 0.01 0.00 80 1020.7
20180224171414 77 177 5.0 14.0 0.00 0.02 0.00 80 1020.8
20180224170913 78 141 6.0 14.0 0.00 0.02 0.00 79 1020.8
20180224170414 78 34 5.0 13.0 0.00 0.02 0.00 79 1020.8
20180224165912 78 139 4.0 15.0 0.00 0.02 0.00 79 1021.0
20180224165409 77 154 5.0 16.0 0.00 0.02 0.00 80 1021.1
20180224164910 77 157 6.0 16.0 0.00 0.02 0.00 81 1021.1
20180224164410 77 146 6.0 15.0 0.00 0.02 0.00 81 1021.1
20180224163909 77 200 5.0 15.0 0.00 0.02 0.00 81 1021.2
20180224163410 77 227 5.0 11.0 0.00 0.02 0.00 81 1021.3
20180224162908 77 258 5.0 13.0 0.00 0.02 0.00 82 1021.2
20180224162407 77 70 5.0 13.0 0.00 0.02 0.00 82 1021.4
20180224161907 76 95 4.0 14.0 0.00 0.02 0.00 83 1021.4
20180224161408 76 227 5.0 14.0 0.00 0.02 0.00 83 1021.5
20180224160908 75 108 5.0 11.0 0.00 0.02 0.00 84 1021.6
20180224160407 75 78 4.0 11.0 0.00 0.02 0.00 85 1021.7
20180224155907 75 190 4.0 9.0 0.00 0.02 0.00 85 1021.7
20180224155408 75 159 4.0 10.0 0.00 0.02 0.00 85 1021.7
20180224154908 75 196 4.0 11.0 0.00 0.02 0.00 86 1021.7
20180224154405 75 119 4.0 11.0 0.00 0.02 0.00 87 1021.8
20180224153906 75 139 4.0 9.0 0.00 0.02 0.00 87 1021.8
20180224153406 74 134 4.0 9.0 0.00 0.02 0.00 90 1021.8
20180224152903 73 161 4.0 9.0 0.00 0.02 0.00 91 1021.8
20180224152405 73 158 3.0 9.0 0.00 0.02 0.00 91 1021.8
20180224151904 73 134 4.0 9.0 0.00 0.02 0.00 92 1021.8
20180224151403 73 177 4.0 9.0 0.00 0.02 0.00 91 1021.8
20180224150904 73 142 4.0 9.0 0.00 0.02 0.00 91 1021.8
20180224150404 73 144 4.0 9.0 0.00 0.02 0.00 91 1021.8
20180224145903 73 129 4.0 9.0 0.00 0.02 0.00 91 1021.7
20180224145404 73 146 4.0 9.0 0.00 0.02 0.00 92 1021.8
20180224144903 72 115 3.0 9.0 0.00 0.02 0.00 93 1021.7
20180224144403 72 148 2.0 8.0 0.00 0.02 0.00 95 1021.6
20180224143904 71 226 2.0 5.0 0.00 0.02 0.00 95 1021.7
20180224143404 71 165 2.0 6.0 0.00 0.02 0.00 95 1021.6
20180224142904 71 130 2.0 6.0 0.00 0.02 0.00 96 1021.6
20180224142403 71 120 3.0 8.0 0.00 0.02 0.00 96 1021.5
20180224141904 71 135 3.0 8.0 0.00 0.02 0.00 96 1021.4
20180224141403 71 139 2.0 7.0 0.00 0.02 0.00 97 1021.4
20180224140903 70 118 2.0 7.0 0.00 0.02 0.00 98 1021.4
20180224140404 70 130 2.0 8.0 0.00 0.02 0.00 98 1021.3
20180224135904 70 132 2.0 8.0 0.00 0.02 0.00 98 1021.3
20180224135403 70 146 2.0 5.0 0.00 0.02 0.00 98 1021.4
20180224134903 70 120 2.0 7.0 0.00 0.02 0.00 98 1021.4
20180224134404 69 164 2.0 7.0 0.00 0.02 0.00 98 1021.4
20180224133904 69 157 2.0 5.0 0.00 0.02 0.00 99 1021.4
20180224133403 69 153 2.0 6.0 0.00 0.02 0.00 99 1021.3
20180224132904 69 135 2.0 6.0 0.00 0.02 0.00 99 1021.2
20180224132404 69 132 2.0 6.0 0.00 0.02 0.00 99 1021.1
20180224131903 69 205 2.0 5.0 0.00 0.02 0.00 99 1021.2
20180224131404 69 119 2.0 5.0 0.00 0.02 0.00 99 1021.2
20180224130903 69 113 2.0 5.0 0.00 0.02 0.00 99 1021.2
20180224130403 69 134 2.0 6.0 0.00 0.02 0.00 99 1021.2
20180224125904 69 146 2.0 6.0 0.00 0.02 0.00 99 1021.2
20180224125404 69 116 1.0 5.0 0.00 0.02 0.00 99 1021.2
20180224124904 69 113 1.0 3.0 0.00 0.02 0.00 99 1021.3
20180224124404 69 115 1.0 3.0 0.00 0.02 0.00 98 1021.4
20180224123902 69 148 1.0 4.0 0.00 0.02 0.00 98 1021.4
20180224123401 69 123 1.0 4.0 0.00 0.02 0.00 98 1021.3
20180224122901 69 148 1.0 5.0 0.00 0.02 0.00 98 1021.2
20180224122400 69 122 1.0 8.0 0.00 0.02 0.00 98 1021.3
20180224121858 69 151 1.0 8.0 0.00 0.02 0.00 98 1021.3
20180224121357 69 144 1.0 4.0 0.00 0.02 0.00 98 1021.3
20180224120858 69 119 1.0 3.0 0.00 0.02 0.00 98 1021.4
20180224120357 69 107 1.0 4.0 0.00 0.02 0.00 98 1021.4
20180224115857 69 227 1.0 4.0 0.00 0.02 0.00 98 1021.4
20180224115357 69 163 2.0 5.0 0.00 0.02 0.00 99 1021.1
20180224114856 69 152 3.0 9.0 0.00 0.02 0.00 99 1021.0
20180224114356 69 104 2.0 9.0 0.00 0.02 0.00 99 1021.0
20180224113855 69 210 1.0 6.0 0.00 0.02 0.00 98 1020.8
20180224113356 69 165 2.0 8.0 0.00 0.02 0.00 98 1020.8
20180224112856 69 106 2.0 8.0 0.00 0.02 0.00 98 1020.8
20180224112355 69 162 2.0 6.0 0.00 0.02 0.00 98 1020.7
20180224111855 69 232 2.0 6.0 0.00 0.02 0.00 98 1020.7
20180224111353 69 145 2.0 6.0 0.00 0.02 0.00 98 1020.7
20180224110854 69 138 2.0 5.0 0.00 0.02 0.00 98 1020.8
20180224110353 69 109 2.0 6.0 0.00 0.02 0.00 98 1020.8
20180224105853 69 145 2.0 6.0 0.00 0.02 0.00 98 1020.6
20180224105354 69 157 2.0 9.0 0.00 0.02 0.00 98 1020.5
20180224104853 69 125 2.0 9.0 0.00 0.02 0.00 98 1020.7
20180224104354 69 110 2.0 6.0 0.00 0.02 0.00 98 1020.7
20180224103853 69 155 2.0 5.0 0.00 0.02 0.00 98 1020.7
20180224103352 69 138 2.0 5.0 0.00 0.02 0.00 98 1020.8
20180224102851 69 136 1.0 5.0 0.00 0.02 0.00 98 1020.7
20180224102351 69 124 1.0 5.0 0.00 0.02 0.00 98 1020.7
20180224101851 69 142 1.0 5.0 0.00 0.02 0.00 98 1020.7
20180224101351 69 161 1.0 4.0 0.00 0.02 0.00 98 1020.7
20180224100849 69 129 1.0 5.0 0.00 0.02 0.00 98 1020.7
20180224100349 69 140 1.0 5.0 0.00 0.02 0.00 98 1020.7
20180224095847 69 125 1.0 6.0 0.00 0.02 0.00 98 1020.7
20180224095347 69 156 2.0 6.0 0.00 0.02 0.00 98 1020.7